Date_Time,Julian_Date,Latitude,Longitude,Instrument_Depth,U,V,Speed,Direction
(yyyy-mm-dd hh:mn:ss UTC),(JD),(+ deg. North),(+ deg. East),(m),(cm/s),(cm/s),(cm/s),(deg True)
1980-04-23 16:00:00 UTC,2444353.166667,27.9058,-93.7647,0580,25.23,-6.29,26.0000,104.0000
1980-04-23 16:20:00 UTC,2444353.180556,27.9058,-93.7647,0580,26.20,-6.53,27.0000,104.0000
1980-04-23 16:40:00 UTC,2444353.194444,27.9058,-93.7647,0580,27.17,-6.77,28.0000,104.0000
1980-04-23 17:00:00 UTC,2444353.208333,27.9058,-93.7647,0580,25.82,-7.89,27.0000,107.0000
1980-04-23 17:20:00 UTC,2444353.222222,27.9058,-93.7647,0580,27.17,-6.77,28.0000,104.0000
1980-04-23 17:40:00 UTC,2444353.236111,27.9058,-93.7647,0580,26.20,-6.53,27.0000,104.0000
1980-04-23 18:00:00 UTC,2444353.250000,27.9058,-93.7647,0580,25.95,-7.44,27.0000,106.0000
1980-04-23 18:20:00 UTC,2444353.263889,27.9058,-93.7647,0580,25.37,-9.23,27.0000,110.0000
1980-04-23 18:40:00 UTC,2444353.277778,27.9058,-93.7647,0580,24.99,-7.17,26.0000,106.0000
1980-04-23 19:00:00 UTC,2444353.291667,27.9058,-93.7647,0580,24.99,-7.17,26.0000,106.0000
1980-04-23 19:20:00 UTC,2444353.305556,27.9058,-93.7647,0580,25.82,-7.89,27.0000,107.0000
1980-04-23 19:40:00 UTC,2444353.319444,27.9058,-93.7647,0580,25.95,-7.44,27.0000,106.0000
1980-04-23 20:00:00 UTC,2444353.333333,27.9058,-93.7647,0580,24.86,-7.60,26.0000,107.0000
1980-04-23 20:20:00 UTC,2444353.347222,27.9058,-93.7647,0580,26.92,-7.72,28.0000,106.0000
1980-04-23 20:40:00 UTC,2444353.361111,27.9058,-93.7647,0580,26.78,-8.19,28.0000,107.0000
1980-04-23 21:00:00 UTC,2444353.375000,27.9058,-93.7647,0580,28.69,-8.77,30.0000,107.0000
1980-04-23 21:20:00 UTC,2444353.388889,27.9058,-93.7647,0580,28.84,-8.27,30.0000,106.0000
1980-04-23 21:40:00 UTC,2444353.402778,27.9058,-93.7647,0580,29.11,-7.26,30.0000,104.0000
1980-04-23 22:00:00 UTC,2444353.416667,27.9058,-93.7647,0580,29.23,-6.75,30.0000,103.0000
1980-04-23 22:20:00 UTC,2444353.430556,27.9058,-93.7647,0580,28.56,-5.04,29.0000,100.0000
1980-04-23 22:40:00 UTC,2444353.444444,27.9058,-93.7647,0580,28.64,-4.54,29.0000,99.0000
1980-04-23 23:00:00 UTC,2444353.458333,27.9058,-93.7647,0580,27.66,-4.38,28.0000,99.0000
1980-04-23 23:20:00 UTC,2444353.472222,27.9058,-93.7647,0580,28.78,-3.53,29.0000,97.0000
1980-04-23 23:40:00 UTC,2444353.486111,27.9058,-93.7647,0580,28.84,-3.03,29.0000,96.0000
1980-04-24 00:00:00 UTC,2444353.500000,27.9058,-93.7647,0580,30.96,-1.62,31.0000,93.0000
1980-04-24 00:20:00 UTC,2444353.513889,27.9058,-93.7647,0580,31.88,-2.79,32.0000,95.0000
1980-04-24 00:40:00 UTC,2444353.527778,27.9058,-93.7647,0580,30.88,-2.70,31.0000,95.0000
1980-04-24 01:00:00 UTC,2444353.541667,27.9058,-93.7647,0580,29.78,-3.66,30.0000,97.0000
1980-04-24 01:20:00 UTC,2444353.555556,27.9058,-93.7647,0580,29.54,-5.21,30.0000,100.0000
1980-04-24 01:40:00 UTC,2444353.569444,27.9058,-93.7647,0580,31.51,-5.56,32.0000,100.0000
1980-04-24 02:00:00 UTC,2444353.583333,27.9058,-93.7647,0580,29.80,-8.54,31.0000,106.0000
1980-04-24 02:20:00 UTC,2444353.597222,27.9058,-93.7647,0580,31.51,-5.56,32.0000,100.0000
1980-04-24 02:40:00 UTC,2444353.611111,27.9058,-93.7647,0580,30.62,-4.85,31.0000,99.0000
1980-04-24 03:00:00 UTC,2444353.625000,27.9058,-93.7647,0580,29.54,-5.21,30.0000,100.0000
1980-04-24 03:20:00 UTC,2444353.638889,27.9058,-93.7647,0580,31.61,-5.01,32.0000,99.0000
1980-04-24 03:40:00 UTC,2444353.652778,27.9058,-93.7647,0580,30.53,-5.38,31.0000,100.0000
1980-04-24 04:00:00 UTC,2444353.666667,27.9058,-93.7647,0580,31.51,-5.56,32.0000,100.0000
1980-04-24 04:20:00 UTC,2444353.680556,27.9058,-93.7647,0580,31.51,-5.56,32.0000,100.0000
1980-04-24 04:40:00 UTC,2444353.694444,27.9058,-93.7647,0580,32.75,-4.02,33.0000,97.0000
1980-04-24 05:00:00 UTC,2444353.708333,27.9058,-93.7647,0580,32.75,-4.02,33.0000,97.0000
1980-04-24 05:20:00 UTC,2444353.722222,27.9058,-93.7647,0580,29.78,-3.66,30.0000,97.0000
1980-04-24 05:40:00 UTC,2444353.736111,27.9058,-93.7647,0580,30.62,-4.85,31.0000,99.0000
1980-04-24 06:00:00 UTC,2444353.750000,27.9058,-93.7647,0580,28.64,-4.54,29.0000,99.0000
1980-04-24 06:20:00 UTC,2444353.763889,27.9058,-93.7647,0580,29.34,-6.24,30.0000,102.0000
1980-04-24 06:40:00 UTC,2444353.777778,27.9058,-93.7647,0580,26.67,-4.22,27.0000,99.0000
1980-04-24 07:00:00 UTC,2444353.791667,27.9058,-93.7647,0580,26.59,-4.69,27.0000,100.0000
1980-04-24 07:20:00 UTC,2444353.805556,27.9058,-93.7647,0580,26.41,-5.61,27.0000,102.0000
1980-04-24 07:40:00 UTC,2444353.819444,27.9058,-93.7647,0580,26.31,-6.07,27.0000,103.0000
1980-04-24 08:00:00 UTC,2444353.833333,27.9058,-93.7647,0580,25.43,-5.41,26.0000,102.0000
1980-04-24 08:20:00 UTC,2444353.847222,27.9058,-93.7647,0580,25.61,-4.51,26.0000,100.0000
1980-04-24 08:40:00 UTC,2444353.861111,27.9058,-93.7647,0580,25.81,-3.17,26.0000,97.0000
1980-04-24 09:00:00 UTC,2444353.875000,27.9058,-93.7647,0580,25.86,-2.72,26.0000,96.0000
1980-04-24 09:20:00 UTC,2444353.888889,27.9058,-93.7647,0580,25.86,-2.72,26.0000,96.0000
1980-04-24 09:40:00 UTC,2444353.902778,27.9058,-93.7647,0580,22.41,-5.17,23.0000,103.0000
1980-04-24 10:00:00 UTC,2444353.916667,27.9058,-93.7647,0580,23.91,-7.31,25.0000,107.0000
1980-04-24 10:20:00 UTC,2444353.930556,27.9058,-93.7647,0580,23.07,-6.62,24.0000,106.0000
1980-04-24 10:40:00 UTC,2444353.944444,27.9058,-93.7647,0580,24.26,-6.05,25.0000,104.0000
1980-04-24 11:00:00 UTC,2444353.958333,27.9058,-93.7647,0580,25.33,-5.85,26.0000,103.0000
1980-04-24 11:20:00 UTC,2444353.972222,27.9058,-93.7647,0580,26.41,-5.61,27.0000,102.0000
1980-04-24 11:40:00 UTC,2444353.986111,27.9058,-93.7647,0580,26.59,-4.69,27.0000,100.0000
1980-04-24 12:00:00 UTC,2444354.000000,27.9058,-93.7647,0580,24.86,-2.61,25.0000,96.0000
1980-04-24 12:20:00 UTC,2444354.013889,27.9058,-93.7647,0580,25.81,-3.17,26.0000,97.0000
1980-04-24 12:40:00 UTC,2444354.027778,27.9058,-93.7647,0580,26.90,-2.35,27.0000,95.0000
1980-04-24 13:00:00 UTC,2444354.041667,27.9058,-93.7647,0580,30.96,-1.62,31.0000,93.0000
1980-04-24 13:20:00 UTC,2444354.055556,27.9058,-93.7647,0580,32.75,-4.02,33.0000,97.0000
1980-04-24 13:40:00 UTC,2444354.069444,27.9058,-93.7647,0580,36.72,-4.51,37.0000,97.0000
1980-04-24 14:00:00 UTC,2444354.083333,27.9058,-93.7647,0580,34.10,-7.87,35.0000,103.0000
1980-04-24 14:20:00 UTC,2444354.097222,27.9058,-93.7647,0580,33.96,-8.47,35.0000,104.0000
1980-04-24 14:40:00 UTC,2444354.111111,27.9058,-93.7647,0580,31.72,-9.10,33.0000,106.0000
1980-04-24 15:00:00 UTC,2444354.125000,27.9058,-93.7647,0580,31.72,-9.10,33.0000,106.0000
1980-04-24 15:20:00 UTC,2444354.138889,27.9058,-93.7647,0580,31.95,-11.63,34.0000,110.0000
1980-04-24 15:40:00 UTC,2444354.152778,27.9058,-93.7647,0580,30.26,-10.42,32.0000,109.0000
1980-04-24 16:00:00 UTC,2444354.166667,27.9058,-93.7647,0580,31.30,-13.28,34.0000,113.0000
1980-04-24 16:20:00 UTC,2444354.180556,27.9058,-93.7647,0580,30.81,-11.83,33.0000,111.0000
1980-04-24 16:40:00 UTC,2444354.194444,27.9058,-93.7647,0580,29.87,-11.47,32.0000,111.0000
1980-04-24 17:00:00 UTC,2444354.208333,27.9058,-93.7647,0580,30.15,-13.42,33.0000,114.0000
1980-04-24 17:20:00 UTC,2444354.222222,27.9058,-93.7647,0580,29.23,-13.02,32.0000,114.0000
1980-04-24 17:40:00 UTC,2444354.236111,27.9058,-93.7647,0580,27.62,-14.07,31.0000,117.0000
1980-04-24 18:00:00 UTC,2444354.250000,27.9058,-93.7647,0580,26.85,-15.50,31.0000,120.0000
1980-04-24 18:20:00 UTC,2444354.263889,27.9058,-93.7647,0580,25.98,-15.00,30.0000,120.0000
1980-04-24 18:40:00 UTC,2444354.277778,27.9058,-93.7647,0580,25.98,-15.00,30.0000,120.0000
1980-04-24 19:00:00 UTC,2444354.291667,27.9058,-93.7647,0580,24.86,-14.94,29.0000,121.0000
1980-04-24 19:20:00 UTC,2444354.305556,27.9058,-93.7647,0580,23.48,-15.25,28.0000,123.0000
1980-04-24 19:40:00 UTC,2444354.319444,27.9058,-93.7647,0580,22.64,-14.71,27.0000,123.0000
1980-04-24 20:00:00 UTC,2444354.333333,27.9058,-93.7647,0580,23.14,-13.91,27.0000,121.0000
1980-04-24 20:20:00 UTC,2444354.347222,27.9058,-93.7647,0580,21.65,-12.50,25.0000,120.0000
1980-04-24 20:40:00 UTC,2444354.361111,27.9058,-93.7647,0580,22.07,-11.74,25.0000,118.0000
1980-04-24 21:00:00 UTC,2444354.375000,27.9058,-93.7647,0580,19.92,-11.50,23.0000,120.0000
1980-04-24 21:20:00 UTC,2444354.388889,27.9058,-93.7647,0580,20.57,-12.36,24.0000,121.0000
1980-04-24 21:40:00 UTC,2444354.402778,27.9058,-93.7647,0580,20.78,-12.00,24.0000,120.0000
1980-04-24 22:00:00 UTC,2444354.416667,27.9058,-93.7647,0580,21.38,-10.90,24.0000,117.0000
1980-04-24 22:20:00 UTC,2444354.430556,27.9058,-93.7647,0580,19.71,-11.85,23.0000,121.0000
1980-04-24 22:40:00 UTC,2444354.444444,27.9058,-93.7647,0580,19.42,-10.33,22.0000,118.0000
1980-04-24 23:00:00 UTC,2444354.458333,27.9058,-93.7647,0580,18.86,-11.33,22.0000,121.0000
1980-04-24 23:20:00 UTC,2444354.472222,27.9058,-93.7647,0580,21.47,-8.24,23.0000,111.0000
1980-04-24 23:40:00 UTC,2444354.486111,27.9058,-93.7647,0580,21.61,-7.87,23.0000,110.0000
1980-04-25 00:00:00 UTC,2444354.500000,27.9058,-93.7647,0580,20.08,-6.14,21.0000,107.0000
1980-04-25 00:20:00 UTC,2444354.513889,27.9058,-93.7647,0580,18.27,-8.13,20.0000,114.0000
1980-04-25 00:40:00 UTC,2444354.527778,27.9058,-93.7647,0580,17.49,-7.42,19.0000,113.0000
1980-04-25 01:00:00 UTC,2444354.541667,27.9058,-93.7647,0580,20.19,-5.79,21.0000,106.0000
1980-04-25 01:20:00 UTC,2444354.555556,27.9058,-93.7647,0580,19.41,-4.84,20.0000,104.0000
1980-04-25 01:40:00 UTC,2444354.569444,27.9058,-93.7647,0580,19.23,-5.51,20.0000,106.0000
1980-04-25 02:00:00 UTC,2444354.583333,27.9058,-93.7647,0580,20.08,-6.14,21.0000,107.0000
1980-04-25 02:20:00 UTC,2444354.597222,27.9058,-93.7647,0580,19.23,-5.51,20.0000,106.0000
1980-04-25 02:40:00 UTC,2444354.611111,27.9058,-93.7647,0580,18.44,-4.60,19.0000,104.0000
1980-04-25 03:00:00 UTC,2444354.625000,27.9058,-93.7647,0580,18.26,-5.24,19.0000,106.0000
1980-04-25 03:20:00 UTC,2444354.638889,27.9058,-93.7647,0580,19.13,-5.85,20.0000,107.0000
1980-04-25 03:40:00 UTC,2444354.652778,27.9058,-93.7647,0580,19.41,-4.84,20.0000,104.0000
1980-04-25 04:00:00 UTC,2444354.666667,27.9058,-93.7647,0580,17.30,-4.96,18.0000,106.0000
1980-04-25 04:20:00 UTC,2444354.680556,27.9058,-93.7647,0580,17.61,-3.74,18.0000,102.0000
1980-04-25 04:40:00 UTC,2444354.694444,27.9058,-93.7647,0580,17.61,-3.74,18.0000,102.0000
1980-04-25 05:00:00 UTC,2444354.708333,27.9058,-93.7647,0580,16.50,-4.11,17.0000,104.0000
1980-04-25 05:20:00 UTC,2444354.722222,27.9058,-93.7647,0580,15.59,-3.60,16.0000,103.0000
1980-04-25 05:40:00 UTC,2444354.736111,27.9058,-93.7647,0580,16.56,-3.82,17.0000,103.0000
1980-04-25 06:00:00 UTC,2444354.750000,27.9058,-93.7647,0580,18.58,-3.95,19.0000,102.0000
1980-04-25 06:20:00 UTC,2444354.763889,27.9058,-93.7647,0580,17.61,-3.74,18.0000,102.0000
1980-04-25 06:40:00 UTC,2444354.777778,27.9058,-93.7647,0580,16.56,-3.82,17.0000,103.0000
1980-04-25 07:00:00 UTC,2444354.791667,27.9058,-93.7647,0580,16.74,-2.95,17.0000,100.0000
1980-04-25 07:20:00 UTC,2444354.805556,27.9058,-93.7647,0580,15.91,-1.67,16.0000,96.0000
1980-04-25 07:40:00 UTC,2444354.819444,27.9058,-93.7647,0580,15.99,-0.56,16.0000,92.0000
1980-04-25 08:00:00 UTC,2444354.833333,27.9058,-93.7647,0580,15.98,-0.84,16.0000,93.0000
1980-04-25 08:20:00 UTC,2444354.847222,27.9058,-93.7647,0580,14.98,-0.79,15.0000,93.0000
1980-04-25 08:40:00 UTC,2444354.861111,27.9058,-93.7647,0580,14.99,-0.52,15.0000,92.0000
1980-04-25 09:00:00 UTC,2444354.875000,27.9058,-93.7647,0580,14.00,0.00,14.0000,90.0000
1980-04-25 09:20:00 UTC,2444354.888889,27.9058,-93.7647,0580,12.99,0.45,13.0000,88.0000
1980-04-25 09:40:00 UTC,2444354.902778,27.9058,-93.7647,0580,14.00,0.24,14.0000,89.0000
1980-04-25 10:00:00 UTC,2444354.916667,27.9058,-93.7647,0580,13.90,-1.71,14.0000,97.0000
1980-04-25 10:20:00 UTC,2444354.930556,27.9058,-93.7647,0580,12.90,-1.58,13.0000,97.0000
1980-04-25 10:40:00 UTC,2444354.944444,27.9058,-93.7647,0580,9.99,-0.52,10.0000,93.0000
1980-04-25 11:00:00 UTC,2444354.958333,27.9058,-93.7647,0580,9.90,1.39,10.0000,82.0000
1980-04-25 11:20:00 UTC,2444354.972222,27.9058,-93.7647,0580,9.82,1.91,10.0000,79.0000
1980-04-25 11:40:00 UTC,2444354.986111,27.9058,-93.7647,0580,11.85,1.88,12.0000,81.0000
1980-04-25 12:00:00 UTC,2444355.000000,27.9058,-93.7647,0580,11.13,4.50,12.0000,68.0000
1980-04-25 12:20:00 UTC,2444355.013889,27.9058,-93.7647,0580,10.63,2.85,11.0000,75.0000
1980-04-25 12:40:00 UTC,2444355.027778,27.9058,-93.7647,0580,11.88,5.29,13.0000,66.0000
1980-04-25 13:00:00 UTC,2444355.041667,27.9058,-93.7647,0580,8.83,1.72,9.0000,79.0000
1980-04-25 13:20:00 UTC,2444355.055556,27.9058,-93.7647,0580,7.00,0.00,7.0000,90.0000
1980-04-25 13:40:00 UTC,2444355.069444,27.9058,-93.7647,0580,7.97,0.70,8.0000,85.0000
1980-04-25 14:00:00 UTC,2444355.083333,27.9058,-93.7647,0580,4.98,-0.44,5.0000,95.0000
1980-04-25 14:20:00 UTC,2444355.097222,27.9058,-93.7647,0580,6.79,1.69,7.0000,76.0000
1980-04-25 14:40:00 UTC,2444355.111111,27.9058,-93.7647,0580,6.87,1.34,7.0000,79.0000
1980-04-25 15:00:00 UTC,2444355.125000,27.9058,-93.7647,0580,7.25,3.38,8.0000,65.0000
1980-04-25 15:20:00 UTC,2444355.138889,27.9058,-93.7647,0580,5.60,2.15,6.0000,69.0000
1980-04-25 15:40:00 UTC,2444355.152778,27.9058,-93.7647,0580,6.69,6.02,9.0000,48.0000
1980-04-25 16:00:00 UTC,2444355.166667,27.9058,-93.7647,0580,5.94,3.71,7.0000,58.0000
1980-04-25 16:20:00 UTC,2444355.180556,27.9058,-93.7647,0580,5.56,5.75,8.0000,44.0000
1980-04-25 16:40:00 UTC,2444355.194444,27.9058,-93.7647,0580,5.66,5.66,8.0000,45.0000
1980-04-25 17:00:00 UTC,2444355.208333,27.9058,-93.7647,0580,6.36,6.36,9.0000,45.0000
1980-04-25 17:20:00 UTC,2444355.222222,27.9058,-93.7647,0580,3.41,3.66,5.0000,43.0000
1980-04-25 17:40:00 UTC,2444355.236111,27.9058,-93.7647,0580,4.17,4.32,6.0000,44.0000
1980-04-25 18:00:00 UTC,2444355.250000,27.9058,-93.7647,0580,3.21,3.83,5.0000,40.0000
1980-04-25 18:20:00 UTC,2444355.263889,27.9058,-93.7647,0580,3.21,3.83,5.0000,40.0000
1980-04-25 18:40:00 UTC,2444355.277778,27.9058,-93.7647,0580,4.60,3.86,6.0000,50.0000
1980-04-25 19:00:00 UTC,2444355.291667,27.9058,-93.7647,0580,3.66,3.41,5.0000,47.0000
1980-04-25 19:20:00 UTC,2444355.305556,27.9058,-93.7647,0580,4.46,4.01,6.0000,48.0000
1980-04-25 19:40:00 UTC,2444355.319444,27.9058,-93.7647,0580,5.25,6.04,8.0000,41.0000
1980-04-25 20:00:00 UTC,2444355.333333,27.9058,-93.7647,0580,7.88,6.16,10.0000,52.0000
1980-04-25 20:20:00 UTC,2444355.347222,27.9058,-93.7647,0580,9.23,5.99,11.0000,57.0000
1980-04-25 20:40:00 UTC,2444355.361111,27.9058,-93.7647,0580,7.87,4.36,9.0000,61.0000
1980-04-25 21:00:00 UTC,2444355.375000,27.9058,-93.7647,0580,7.25,3.38,8.0000,65.0000
1980-04-25 21:20:00 UTC,2444355.388889,27.9058,-93.7647,0580,5.56,2.25,6.0000,68.0000
1980-04-25 21:40:00 UTC,2444355.402778,27.9058,-93.7647,0580,5.60,2.15,6.0000,69.0000
1980-04-25 22:00:00 UTC,2444355.416667,27.9058,-93.7647,0580,5.60,2.15,6.0000,69.0000
1980-04-25 22:20:00 UTC,2444355.430556,27.9058,-93.7647,0580,7.25,3.38,8.0000,65.0000
1980-04-25 22:40:00 UTC,2444355.444444,27.9058,-93.7647,0580,7.06,3.76,8.0000,62.0000
1980-04-25 23:00:00 UTC,2444355.458333,27.9058,-93.7647,0580,7.31,3.25,8.0000,66.0000
1980-04-25 23:20:00 UTC,2444355.472222,27.9058,-93.7647,0580,7.06,3.76,8.0000,62.0000
1980-04-25 23:40:00 UTC,2444355.486111,27.9058,-93.7647,0580,7.31,3.25,8.0000,66.0000
1980-04-26 00:00:00 UTC,2444355.500000,27.9058,-93.7647,0580,6.00,3.61,7.0000,59.0000
1980-04-26 00:20:00 UTC,2444355.513889,27.9058,-93.7647,0580,6.34,2.96,7.0000,65.0000
1980-04-26 00:40:00 UTC,2444355.527778,27.9058,-93.7647,0580,6.18,3.29,7.0000,62.0000
1980-04-26 01:00:00 UTC,2444355.541667,27.9058,-93.7647,0580,5.94,3.71,7.0000,58.0000
1980-04-26 01:20:00 UTC,2444355.555556,27.9058,-93.7647,0580,6.00,3.61,7.0000,59.0000
1980-04-26 01:40:00 UTC,2444355.569444,27.9058,-93.7647,0580,7.00,3.88,8.0000,61.0000
1980-04-26 02:00:00 UTC,2444355.583333,27.9058,-93.7647,0580,4.24,2.65,5.0000,58.0000
1980-04-26 02:20:00 UTC,2444355.597222,27.9058,-93.7647,0580,3.50,1.94,4.0000,61.0000
1980-04-26 02:40:00 UTC,2444355.611111,27.9058,-93.7647,0580,4.19,2.72,5.0000,57.0000
1980-04-26 03:00:00 UTC,2444355.625000,27.9058,-93.7647,0580,4.91,3.44,6.0000,55.0000
1980-04-26 03:20:00 UTC,2444355.638889,27.9058,-93.7647,0580,3.39,2.12,4.0000,58.0000
1980-04-26 03:40:00 UTC,2444355.652778,27.9058,-93.7647,0580,3.63,1.69,4.0000,65.0000
1980-04-26 04:00:00 UTC,2444355.666667,27.9058,-93.7647,0580,4.09,4.39,6.0000,43.0000
1980-04-26 04:20:00 UTC,2444355.680556,27.9058,-93.7647,0580,3.47,3.60,5.0000,44.0000
1980-04-26 04:40:00 UTC,2444355.694444,27.9058,-93.7647,0580,3.28,3.77,5.0000,41.0000
1980-04-26 05:00:00 UTC,2444355.708333,27.9058,-93.7647,0580,3.61,4.79,6.0000,37.0000
1980-04-26 05:20:00 UTC,2444355.722222,27.9058,-93.7647,0580,5.95,5.35,8.0000,48.0000
1980-04-26 05:40:00 UTC,2444355.736111,27.9058,-93.7647,0580,8.90,6.47,11.0000,54.0000
1980-04-26 06:00:00 UTC,2444355.750000,27.9058,-93.7647,0580,8.48,5.30,10.0000,58.0000
1980-04-26 06:20:00 UTC,2444355.763889,27.9058,-93.7647,0580,9.01,6.31,11.0000,55.0000
1980-04-26 06:40:00 UTC,2444355.777778,27.9058,-93.7647,0580,9.43,5.67,11.0000,59.0000
1980-04-26 07:00:00 UTC,2444355.791667,27.9058,-93.7647,0580,8.48,5.30,10.0000,58.0000
1980-04-26 07:20:00 UTC,2444355.805556,27.9058,-93.7647,0580,9.71,5.16,11.0000,62.0000
1980-04-26 07:40:00 UTC,2444355.819444,27.9058,-93.7647,0580,9.27,3.75,10.0000,68.0000
1980-04-26 08:00:00 UTC,2444355.833333,27.9058,-93.7647,0580,8.56,2.78,9.0000,72.0000
1980-04-26 08:20:00 UTC,2444355.847222,27.9058,-93.7647,0580,8.89,1.41,9.0000,81.0000
1980-04-26 08:40:00 UTC,2444355.861111,27.9058,-93.7647,0580,7.85,1.53,8.0000,79.0000
1980-04-26 09:00:00 UTC,2444355.875000,27.9058,-93.7647,0580,9.99,0.35,10.0000,88.0000
1980-04-26 09:20:00 UTC,2444355.888889,27.9058,-93.7647,0580,8.89,-1.41,9.0000,99.0000
1980-04-26 09:40:00 UTC,2444355.902778,27.9058,-93.7647,0580,6.93,-4.00,8.0000,120.0000
1980-04-26 10:00:00 UTC,2444355.916667,27.9058,-93.7647,0580,7.46,-5.03,9.0000,124.0000
1980-04-26 10:20:00 UTC,2444355.930556,27.9058,-93.7647,0580,6.47,-4.70,8.0000,126.0000
1980-04-26 10:40:00 UTC,2444355.944444,27.9058,-93.7647,0580,4.53,-3.94,6.0000,131.0000
1980-04-26 11:00:00 UTC,2444355.958333,27.9058,-93.7647,0580,5.66,-5.66,8.0000,135.0000
1980-04-26 11:20:00 UTC,2444355.972222,27.9058,-93.7647,0580,6.14,-6.58,9.0000,137.0000
1980-04-26 11:40:00 UTC,2444355.986111,27.9058,-93.7647,0580,4.73,-3.69,6.0000,128.0000
1980-04-26 12:00:00 UTC,2444356.000000,27.9058,-93.7647,0580,4.95,-4.95,7.0000,135.0000
1980-04-26 12:20:00 UTC,2444356.013889,27.9058,-93.7647,0580,4.39,-4.09,6.0000,133.0000
1980-04-26 12:40:00 UTC,2444356.027778,27.9058,-93.7647,0580,4.53,-3.94,6.0000,131.0000
1980-04-26 13:00:00 UTC,2444356.041667,27.9058,-93.7647,0580,3.21,-3.83,5.0000,140.0000
1980-04-26 13:20:00 UTC,2444356.055556,27.9058,-93.7647,0580,2.36,-1.85,3.0000,128.0000
1980-04-26 13:40:00 UTC,2444356.069444,27.9058,-93.7647,0580,1.84,-0.78,2.0000,113.0000
1980-04-26 14:00:00 UTC,2444356.083333,27.9058,-93.7647,0580,2.98,0.37,3.0000,83.0000
1980-04-26 14:20:00 UTC,2444356.097222,27.9058,-93.7647,0580,4.81,1.38,5.0000,74.0000
1980-04-26 14:40:00 UTC,2444356.111111,27.9058,-93.7647,0580,6.54,2.51,7.0000,69.0000
1980-04-26 15:00:00 UTC,2444356.125000,27.9058,-93.7647,0580,7.56,2.60,8.0000,71.0000
1980-04-26 15:20:00 UTC,2444356.138889,27.9058,-93.7647,0580,6.49,2.62,7.0000,68.0000
1980-04-26 15:40:00 UTC,2444356.152778,27.9058,-93.7647,0580,7.19,3.51,8.0000,64.0000
1980-04-26 16:00:00 UTC,2444356.166667,27.9058,-93.7647,0580,7.00,3.88,8.0000,61.0000
1980-04-26 16:20:00 UTC,2444356.180556,27.9058,-93.7647,0580,7.56,2.60,8.0000,71.0000
1980-04-26 16:40:00 UTC,2444356.194444,27.9058,-93.7647,0580,9.70,2.42,10.0000,76.0000
1980-04-26 17:00:00 UTC,2444356.208333,27.9058,-93.7647,0580,9.99,0.35,10.0000,88.0000
1980-04-26 17:20:00 UTC,2444356.222222,27.9058,-93.7647,0580,7.97,0.70,8.0000,85.0000
1980-04-26 17:40:00 UTC,2444356.236111,27.9058,-93.7647,0580,6.85,-1.46,7.0000,102.0000
1980-04-26 18:00:00 UTC,2444356.250000,27.9058,-93.7647,0580,4.19,-2.72,5.0000,123.0000
1980-04-26 18:20:00 UTC,2444356.263889,27.9058,-93.7647,0580,2.98,-0.37,3.0000,97.0000
1980-04-26 18:40:00 UTC,2444356.277778,27.9058,-93.7647,0580,2.98,-0.31,3.0000,96.0000
1980-04-26 19:00:00 UTC,2444356.291667,27.9058,-93.7647,0580,2.00,-0.03,2.0000,91.0000
1980-04-26 19:20:00 UTC,2444356.305556,27.9058,-93.7647,0580,1.99,0.24,2.0000,83.0000
1980-04-26 19:40:00 UTC,2444356.319444,27.9058,-93.7647,0580,1.44,-1.39,2.0000,134.0000
1980-04-26 20:00:00 UTC,2444356.333333,27.9058,-93.7647,0580,2.98,-0.31,3.0000,96.0000
1980-04-26 20:20:00 UTC,2444356.347222,27.9058,-93.7647,0580,67.00,0.00,67.0000,90.0000
1980-04-26 20:40:00 UTC,2444356.361111,27.9058,-93.7647,0580,1.99,-0.21,2.0000,96.0000
1980-04-26 21:00:00 UTC,2444356.375000,27.9058,-93.7647,0580,1.94,0.48,2.0000,76.0000
1980-04-26 21:20:00 UTC,2444356.388889,27.9058,-93.7647,0580,1.75,0.97,2.0000,61.0000
1980-04-26 21:40:00 UTC,2444356.402778,27.9058,-93.7647,0580,1.39,1.44,2.0000,44.0000
1980-04-26 22:00:00 UTC,2444356.416667,27.9058,-93.7647,0580,1.49,1.34,2.0000,48.0000
1980-04-26 22:20:00 UTC,2444356.430556,27.9058,-93.7647,0580,1.31,1.51,2.0000,41.0000
1980-04-26 22:40:00 UTC,2444356.444444,27.9058,-93.7647,0580,1.81,2.40,3.0000,37.0000
1980-04-26 23:00:00 UTC,2444356.458333,27.9058,-93.7647,0580,1.22,2.74,3.0000,24.0000
1980-04-26 23:20:00 UTC,2444356.472222,27.9058,-93.7647,0580,1.79,4.67,5.0000,21.0000
1980-04-26 23:40:00 UTC,2444356.486111,27.9058,-93.7647,0580,1.63,3.65,4.0000,24.0000
1980-04-27 00:00:00 UTC,2444356.500000,27.9058,-93.7647,0580,1.12,4.87,5.0000,13.0000
1980-04-27 00:20:00 UTC,2444356.513889,27.9058,-93.7647,0580,1.95,5.67,6.0000,19.0000
1980-04-27 00:40:00 UTC,2444356.527778,27.9058,-93.7647,0580,1.93,6.73,7.0000,16.0000
1980-04-27 01:00:00 UTC,2444356.541667,27.9058,-93.7647,0580,2.74,6.44,7.0000,23.0000
1980-04-27 01:20:00 UTC,2444356.555556,27.9058,-93.7647,0580,1.69,6.79,7.0000,14.0000
1980-04-27 01:40:00 UTC,2444356.569444,27.9058,-93.7647,0580,0.31,5.99,6.0000,3.0000
1980-04-27 02:00:00 UTC,2444356.583333,27.9058,-93.7647,0580,0.00,9.00,9.0000,0.0000
1980-04-27 02:20:00 UTC,2444356.597222,27.9058,-93.7647,0580,1.56,8.86,9.0000,10.0000
1980-04-27 02:40:00 UTC,2444356.611111,27.9058,-93.7647,0580,3.23,8.40,9.0000,21.0000
1980-04-27 03:00:00 UTC,2444356.625000,27.9058,-93.7647,0580,3.51,11.48,12.0000,17.0000
1980-04-27 03:20:00 UTC,2444356.638889,27.9058,-93.7647,0580,3.76,10.34,11.0000,20.0000
1980-04-27 03:40:00 UTC,2444356.652778,27.9058,-93.7647,0580,3.22,10.52,11.0000,17.0000
1980-04-27 04:00:00 UTC,2444356.666667,27.9058,-93.7647,0580,3.58,12.50,13.0000,16.0000
1980-04-27 04:20:00 UTC,2444356.680556,27.9058,-93.7647,0580,3.71,11.41,12.0000,18.0000
1980-04-27 04:40:00 UTC,2444356.694444,27.9058,-93.7647,0580,3.42,9.40,10.0000,20.0000
1980-04-27 05:00:00 UTC,2444356.708333,27.9058,-93.7647,0580,2.63,8.61,9.0000,17.0000
1980-04-27 05:20:00 UTC,2444356.722222,27.9058,-93.7647,0580,3.76,10.34,11.0000,20.0000
1980-04-27 05:40:00 UTC,2444356.736111,27.9058,-93.7647,0580,2.42,9.70,10.0000,14.0000
1980-04-27 06:00:00 UTC,2444356.750000,27.9058,-93.7647,0580,2.74,7.52,8.0000,20.0000
1980-04-27 06:20:00 UTC,2444356.763889,27.9058,-93.7647,0580,3.25,7.31,8.0000,24.0000
1980-04-27 06:40:00 UTC,2444356.777778,27.9058,-93.7647,0580,3.51,7.19,8.0000,26.0000
1980-04-27 07:00:00 UTC,2444356.791667,27.9058,-93.7647,0580,2.85,6.39,7.0000,24.0000
1980-04-27 07:20:00 UTC,2444356.805556,27.9058,-93.7647,0580,2.60,7.56,8.0000,19.0000
1980-04-27 07:40:00 UTC,2444356.819444,27.9058,-93.7647,0580,2.39,6.58,7.0000,20.0000
1980-04-27 08:00:00 UTC,2444356.833333,27.9058,-93.7647,0580,1.65,5.77,6.0000,16.0000
1980-04-27 08:20:00 UTC,2444356.847222,27.9058,-93.7647,0580,1.93,6.73,7.0000,16.0000
1980-04-27 08:40:00 UTC,2444356.861111,27.9058,-93.7647,0580,2.63,5.39,6.0000,26.0000
1980-04-27 09:00:00 UTC,2444356.875000,27.9058,-93.7647,0580,1.63,4.73,5.0000,19.0000
1980-04-27 09:20:00 UTC,2444356.888889,27.9058,-93.7647,0580,1.46,4.78,5.0000,17.0000
1980-04-27 09:40:00 UTC,2444356.902778,27.9058,-93.7647,0580,1.95,5.67,6.0000,19.0000